Location: Saint-Morand
(47.8012°N, 1.2794°W)
Time: 11:43:09
(UTC+00:00)

COSMOS 2428 - Pass Details

Date: 03 March 2021
Orbit: 845 x 858 km, 70.9° (Epoch: 23 April)

Event Time Altitude Azimuth Distance (km) Brightness Sun altitude
Rises 21:00:03 0° 219° (SW) 3,394 6.0 -31.3°
Reaches altitude 10° 21:02:32 10° 223° (SW) 2,463 5.2 -31.7°
Enters shadow 21:07:04 49° 262° (W) 1,077 3.4 -32.3°
Exits shadow 21:13:49 10° 22° (NNE) 2,520 5.2 -33.3°
Sets 21:16:14 0° 26° (NNE) 3,424 5.9 -33.6°
